E3896 Weather Reports


time (UTC)temp
C
wind
direction
speed
KPH
gust
KPH
rain 1hr
cm
rain 24hr
cm
rain mn
cm
humidity
%
barometer
mb
20260505102007 11 191 1.6 8.0 0.00 0.00 0.00 91 1013.5
20260505101547 11 178 1.6 11.3 0.00 0.00 0.00 91 1013.5
20260505101011 11 181 3.2 11.3 0.00 0.00 0.00 91 1013.4
20260505100506 11 175 6.4 11.3 0.00 0.00 0.00 91 1013.4
20260505100050 11 175 3.2 11.3 0.00 0.00 0.00 92 1013.4
20260505095510 11 161 4.8 11.3 0.00 0.00 0.00 92 1013.4
20260505095011 11 156 8.0 11.3 0.00 0.00 0.00 92 1013.4
20260505094530 11 170 6.4 11.3 0.00 0.00 0.00 92 1013.3
20260505094011 11 163 4.8 11.3 0.00 0.00 0.00 92 1013.3
20260505093509 11 173 3.2 9.7 0.00 0.00 0.00 92 1013.3
20260505093025 11 173 3.2 8.0 0.00 0.00 0.00 92 1013.2
20260505092512 11 170 3.2 8.0 0.00 0.00 0.00 92 1013.2
20260505092014 11 175 6.4 9.7 0.00 0.00 0.00 92 1013.1
20260505091524 11 169 4.8 9.7 0.00 0.00 0.00 92 1013.1
20260505091012 11 171 4.8 9.7 0.00 0.00 0.00 91 1012.9
20260505090512 11 175 3.2 9.7 0.00 0.00 0.00 91 1012.8
20260505090026 11 171 4.8 9.7 0.00 0.00 0.00 91 1012.7
20260505085513 11 169 1.6 11.3 0.00 0.00 0.00 91 1012.7
20260505085010 11 166 3.2 11.3 0.00 0.00 0.00 92 1012.7
20260505084526 11 165 3.2 11.3 0.00 0.00 0.00 92 1012.8
20260505084011 11 175 3.2 11.3 0.00 0.00 0.00 92 1012.8
20260505083513 11 178 1.6 9.7 0.00 0.00 0.00 92 1012.8
20260505083025 11 174 3.2 8.0 0.00 0.00 0.00 92 1012.8
20260505082508 11 174 0.0 8.0 0.00 0.00 0.00 92 1012.7
20260505082008 11 172 0.0 8.0 0.00 0.00 0.00 92 1012.7
20260505081526 11 174 0.0 4.8 0.00 0.00 0.00 92 1012.7
20260505081011 11 176 0.0 4.8 0.00 0.00 0.00 92 1012.6
20260505080510 11 175 0.0 4.8 0.00 0.00 0.00 91 1012.6
20260505080026 11 176 0.0 4.8 0.00 0.00 0.00 91 1012.6
20260505075506 11 177 0.0 3.2 0.00 0.00 0.00 91 1012.6
20260505075008 11 176 0.0 3.2 0.00 0.00 0.00 91 1012.6
20260505074504 11 176 0.0 3.2 0.00 0.00 0.00 91 1012.5
20260505074009 11 176 0.0 3.2 0.00 0.00 0.00 91 1012.5
20260505073504 11 176 0.0 3.2 0.00 0.00 0.00 91 1012.4
20260505073015 12 176 0.0 4.8 0.00 0.00 0.00 90 1012.4
20260505072507 12 176 0.0 4.8 0.00 0.00 0.00 90 1012.3
20260505072003 12 172 0.0 8.0 0.00 0.00 0.00 90 1012.2
20260505071503 12 170 0.0 8.0 0.00 0.00 0.00 90 1012.2
20260505071003 12 150 0.0 3.2 0.00 0.00 0.00 90 1012.2
20260505070507 12 151 0.0 3.2 0.00 0.00 0.00 90 1012.1
20260505070006 12 151 0.0 3.2 0.00 0.00 0.00 89 1012.0
20260505065504 12 157 0.0 3.2 0.00 0.00 0.00 89 1012.1
20260505065003 12 156 0.0 3.2 0.00 0.00 0.00 89 1012.0
20260505064503 12 155 0.0 3.2 0.00 0.00 0.00 89 1012.0
20260505064002 12 155 0.0 3.2 0.00 0.00 0.00 89 1011.9
20260505063502 12 153 0.0 9.7 0.00 0.00 0.00 89 1012.0
20260505063004 12 154 0.0 9.7 0.00 0.00 0.00 89 1012.0
20260505062504 12 169 1.6 6.4 0.00 0.00 0.00 88 1011.8
20260505062006 12 160 1.6 6.4 0.00 0.00 0.00 88 1011.7
20260505061512 12 165 0.0 4.8 0.00 0.00 0.00 87 1011.8
20260505061004 13 129 0.0 4.8 0.00 0.00 0.00 87 1011.7
20260505060503 13 128 1.6 4.8 0.00 0.00 0.00 86 1011.6
20260505060004 13 112 0.0 3.2 0.00 0.00 0.00 86 1011.6
20260505055504 13 100 0.0 3.2 0.00 0.00 0.00 85 1011.5
20260505055004 13 87 0.0 3.2 0.00 0.00 0.00 85 1011.3
20260505054506 13 84 0.0 3.2 0.00 0.00 0.00 84 1011.3
20260505054005 13 86 0.0 3.2 0.00 0.00 0.00 84 1011.3
20260505053504 14 86 0.0 3.2 0.00 0.00 0.00 84 1011.2
20260505053004 14 86 1.6 4.8 0.00 0.00 0.00 82 1011.2
20260505052504 15 101 1.6 4.8 0.00 0.00 0.00 81 1011.2
20260505052006 15 79 0.0 4.8 0.00 0.00 0.00 80 1011.1
20260505051537 15 119 1.6 3.2 0.00 0.00 0.00 79 1011.0
20260505051007 15 121 1.6 3.2 0.00 0.00 0.00 78 1011.0
20260505050507 15 122 1.6 3.2 0.00 0.00 0.00 78 1010.8
20260505041526 15 222 0.0 3.2 0.00 0.00 0.00 77 1010.4
20260505041009 15 222 0.0 3.2 0.00 0.00 0.00 76 1010.3
20260505040515 15 222 0.0 3.2 0.00 0.00 0.00 75 1010.2
20260505040025 16 222 0.0 3.2 0.00 0.00 0.00 74 1010.1
20260505035512 16 222 0.0 3.2 0.00 0.00 0.00 73 1010.0
20260505035011 17 222 0.0 3.2 0.00 0.00 0.00 73 1010.0
20260505034526 17 223 0.0 3.2 0.00 0.00 0.00 72 1009.9
20260505034010 17 222 0.0 3.2 0.00 0.00 0.00 66 1009.9
20260505033510 17 207 0.0 3.2 0.00 0.00 0.00 67 1009.8
20260505033028 18 207 0.0 3.2 0.00 0.00 0.00 68 1009.8
20260505032512 18 207 0.0 3.2 0.00 0.00 0.00 68 1009.7
20260505032009 18 207 0.0 3.2 0.00 0.00 0.00 67 1009.7
20260505031536 18 207 0.0 3.2 0.00 0.00 0.00 67 1009.7
20260505031016 18 207 0.0 3.2 0.00 0.00 0.00 65 1009.7
20260505030513 18 207 0.0 3.2 0.00 0.00 0.00 65 1009.6
20260505030026 18 207 0.0 3.2 0.00 0.00 0.00 64 1009.5
20260505025508 19 207 0.0 3.2 0.00 0.00 0.00 63 1009.5
20260505025009 19 207 0.0 3.2 0.00 0.00 0.00 61 1009.5
20260505024524 19 207 0.0 3.2 0.00 0.00 0.00 61 1009.4
20260505024009 19 207 0.0 3.2 0.00 0.00 0.00 59 1009.4
20260505023507 20 207 0.0 3.2 0.00 0.00 0.00 59 1009.3
20260505023024 20 207 0.0 3.2 0.00 0.00 0.00 58 1009.2
20260505022507 21 207 1.6 3.2 0.00 0.00 0.00 57 1009.3
20260505022011 21 223 0.0 3.2 0.00 0.00 0.00 56 1009.4
20260505021533 21 223 0.0 3.2 0.00 0.00 0.00 57 1009.4
20260505021012 21 223 0.0 4.8 0.00 0.00 0.00 57 1009.4
20260505020511 22 223 3.2 4.8 0.00 0.00 0.00 58 1009.5
20260505020030 22 74 0.0 3.2 0.00 0.00 0.00 55 1009.5
20260505015511 22 76 0.0 3.2 0.00 0.00 0.00 56 1009.4
20260505015010 22 77 1.6 3.2 0.00 0.00 0.00 58 1009.5
20260505014528 22 78 0.0 3.2 0.00 0.00 0.00 58 1009.5
20260505014007 22 78 0.0 3.2 0.00 0.00 0.00 58 1009.5
20260505013509 22 78 0.0 4.8 0.00 0.00 0.00 57 1009.5
20260505013030 22 78 0.0 4.8 0.00 0.00 0.00 57 1009.6
20260505012508 22 80 1.6 3.2 0.00 0.00 0.00 55 1009.4
20260505012013 22 80 0.0 8.0 0.00 0.00 0.00 55 1009.5
20260505011534 22 80 0.0 12.9 0.00 0.00 0.00 55 1009.6
20260505011009 22 58 3.2 12.9 0.00 0.00 0.00 55 1009.6
20260505010511 22 177 1.6 4.8 0.00 0.00 0.00 54 1009.6
20260505010048 22 136 0.0 3.2 0.00 0.00 0.00 54 1009.6
20260505005510 22 154 1.6 4.8 0.00 0.00 0.00 53 1009.6
20260505005011 22 105 1.6 6.4 0.00 0.00 0.00 53 1009.5
20260505004525 22 121 1.6 6.4 0.00 0.00 0.00 54 1009.6
20260505004009 22 123 1.6 6.4 0.00 0.00 0.00 54 1009.7
20260505003510 22 70 3.2 8.0 0.00 0.00 0.00 56 1009.6
20260505003025 22 84 1.6 8.0 0.00 0.00 0.00 56 1009.6
20260505002512 22 81 1.6 8.0 0.00 0.00 0.00 55 1009.6
20260505002009 22 80 1.6 6.4 0.00 0.00 0.00 55 1009.6
20260505001528 22 88 3.2 9.7 0.00 0.00 0.00 55 1009.7
20260505001011 22 94 1.6 9.7 0.00 0.00 0.00 54 1009.6
20260505000510 22 90 3.2 9.7 0.00 0.00 0.00 53 1009.6
20260505000040 22 77 3.2 12.9 0.00 0.00 0.00 53 1009.6
20260504235510 22 78 3.2 12.9 0.00 0.00 0.00 52 1009.6
20260504235010 22 92 3.2 11.3 0.00 0.00 0.00 51 1009.6
20260504234526 23 95 1.6 9.7 0.00 0.00 0.00 52 1009.7
20260504234010 23 136 1.6 9.7 0.00 0.00 0.00 52 1009.7
20260504233512 23 84 1.6 8.0 0.00 0.00 0.00 51 1009.7
20260504233026 22 90 3.2 8.0 0.00 0.00 0.00 54 1009.6
20260504232509 22 194 1.6 12.9 0.00 0.00 0.00 54 1009.6
20260504232011 22 101 3.2 12.9 0.00 0.00 0.00 54 1009.6
20260504231527 22 106 1.6 11.3 0.00 0.00 0.00 55 1009.6
20260504231010 22 161 3.2 11.3 0.00 0.00 0.00 58 1009.6
20260504230507 22 69 3.2 14.5 0.00 0.00 0.00 1009.6
20260504230039 22 177 3.2 14.5 0.00 0.00 0.00 1009.7
20260504225508 22 67 1.6 14.5 0.00 0.00 0.00 60 1009.8
20260504225011 22 74 4.8 14.5 0.00 0.00 0.00 60 1009.8
20260504224528 22 196 1.6 16.1 0.00 0.00 0.00 61 1009.8
20260504224007 21 110 1.6 16.1 0.00 0.00 0.00 1009.9
20260504223512 21 167 3.2 16.1 0.00 0.00 0.00 1010.0
20260504223028 22 103 3.2 9.7 0.00 0.00 0.00 1010.0
20260504222504 21 106 1.6 9.7 0.00 0.00 0.00 1010.0
20260504222006 21 115 0.0 8.0 0.00 0.00 0.00 59 1010.0
20260504221520 21 165 1.6 12.9 0.00 0.00 0.00 59 1010.1
20260504221004 21 87 3.2 12.9 0.00 0.00 0.00 1010.1
20260504220504 21 65 1.6 12.9 0.00 0.00 0.00 1010.2
20260504220012 21 89 1.6 12.9 0.00 0.00 0.00 62 1010.3
20260504215507 21 71 3.2 11.3 0.00 0.00 0.00 62 1010.3
20260504215009 21 81 3.2 12.9 0.00 0.00 0.00 62 1010.3
20260504214508 21 90 1.6 12.9 0.00 0.00 0.00 66 1010.4
20260504214003 21 93 1.6 6.4 0.00 0.00 0.00 65 1010.5
20260504213504 21 196 3.2 9.7 0.00 0.00 0.00 64 1010.6
20260504213008 21 92 3.2 9.7 0.00 0.00 0.00 64 1010.7
20260504212504 21 132 1.6 9.7 0.00 0.00 0.00 65 1010.7
20260504212006 20 117 1.6 9.7 0.00 0.00 0.00 64 1010.8
20260504211510 20 93 0.0 11.3 0.00 0.00 0.00 64 1010.8
20260504211004 20 110 1.6 12.9 0.00 0.00 0.00 64 1010.8
20260504210504 20 182 3.2 12.9 0.00 0.00 0.00 65 1010.8
20260504210010 20 149 1.6 11.3 0.00 0.00 0.00 67 1010.8
20260504205510 20 96 3.2 9.7 0.00 0.00 0.00 65 1010.8
20260504205003 20 83 3.2 12.9 0.00 0.00 0.00 65 1010.8
20260504204511 20 130 3.2 12.9 0.00 0.00 0.00 65 1011.0
20260504204004 20 99 1.6 11.3 0.00 0.00 0.00 65 1010.9
20260504203505 20 92 3.2 11.3 0.00 0.00 0.00 67 1010.9
20260504203011 20 82 3.2 11.3 0.00 0.00 0.00 65 1011.0
20260504202507 20 77 3.2 11.3 0.00 0.00 0.00 66 1010.9
20260504202004 20 128 0.0 3.2 0.00 0.00 0.00 66 1011.0
20260504201512 20 134 0.0 3.2 0.00 0.00 0.00 67 1011.0
20260504201008 20 103 0.0 4.8 0.00 0.00 0.00 68 1011.1
20260504200509 20 103 0.0 4.8 0.00 0.00 0.00 67 1011.1
20260504200012 20 112 0.0 14.5 0.00 0.00 0.00 67 1011.1
20260504195506 20 175 1.6 14.5 0.00 0.00 0.00 67 1011.1
20260504195013 20 184 3.2 14.5 0.00 0.00 0.00 68 1011.0
20260504194514 20 110 3.2 11.3 0.00 0.00 0.00 69 1011.0
20260504194006 19 158 0.0 8.0 0.00 0.00 0.00 70 1011.1
20260504193506 18 132 1.6 8.0 0.00 0.00 0.00 69 1011.2
20260504193014 18 152 1.6 4.8 0.00 0.00 0.00 71 1011.2
20260504192506 18 160 1.6 4.8 0.00 0.00 0.00 71 1011.2
20260504192012 18 97 0.0 4.8 0.00 0.00 0.00 72 1011.3
20260504191513 18 116 1.6 4.8 0.00 0.00 0.00 70 1011.4
20260504191006 18 139 0.0 3.2 0.00 0.00 0.00 70 1011.4
20260504190507 18 113 1.6 3.2 0.00 0.00 0.00 69 1011.4
20260504190012 18 155 0.0 6.4 0.00 0.00 0.00 70 1011.4
20260504185503 18 152 0.0 6.4 0.00 0.00 0.00 69 1011.5
20260504185008 18 157 0.0 3.2 0.00 0.00 0.00 70 1011.5
20260504184518 18 169 0.0 3.2 0.00 0.00 0.00 70 1011.5
20260504184010 17 169 0.0 9.7 0.00 0.00 0.00 71 1011.5
20260504183508 17 98 1.6 9.7 0.00 0.00 0.00 69 1011.5
20260504183014 17 150 1.6 9.7 0.00 0.00 0.00 68 1011.5
20260504182506 17 158 3.2 9.7 0.00 0.00 0.00 66 1011.5
20260504182013 17 128 1.6 9.7 0.00 0.00 0.00 65 1011.4
20260504181517 17 142 1.6 6.4 0.00 0.00 0.00 68 1011.4
20260504181007 17 127 1.6 6.4 0.00 0.00 0.00 70 1011.4
20260504180509 17 121 1.6 6.4 0.00 0.00 0.00 67 1011.3
20260504180016 17 123 1.6 4.8 0.00 0.00 0.00 70 1011.4
20260504175504 17 127 1.6 3.2 0.00 0.00 0.00 69 1011.5
20260504175007 17 121 0.0 3.2 0.00 0.00 0.00 70 1011.4
20260504174514 17 117 0.0 3.2 0.00 0.00 0.00 70 1011.4
20260504174004 17 115 0.0 3.2 0.00 0.00 0.00 69 1011.4
20260504173507 17 115 0.0 3.2 0.00 0.00 0.00 67 1011.4
20260504173032 17 115 0.0 3.2 0.00 0.00 0.00 70 1011.4
20260504172505 16 115 0.0 3.2 0.00 0.00 0.00 69 1011.5
20260504172009 17 101 0.0 3.2 0.00 0.00 0.00 71 1011.5
20260504171514 16 101 0.0 3.2 0.00 0.00 0.00 71 1011.5
20260504171011 16 122 0.0 3.2 0.00 0.00 0.00 72 1011.4
20260504170506 16 123 0.0 3.2 0.00 0.00 0.00 73 1011.4
20260504151007 12 30 0.0 0.0 0.00 0.00 0.00 84 1010.8
20260504150510 12 30 0.0 0.0 0.00 0.00 0.00 84 1010.7
20260504141013 11 30 0.0 3.2 0.00 0.00 0.00 84 1010.4
20260504140507 11 30 0.0 3.2 0.00 0.00 0.00 84 1010.3
20260504130511 11 30 0.0 3.2 0.00 0.00 0.00 82 1010.0
20260504110511 12 30 0.0 0.0 0.00 0.00 0.00 71 1009.8